Regional Weather Roundup
Issued by NWS Bismarck, ND

Home | Current Version | Previous Version | Text Only | Print | Product List | Glossary On
Versions: 1 2 3 4 5 6 7 8 9 10 11 12 13 14 15 16 17 18 19 20 21 22 23 24 25 26 27 28 29 30 31 32 33 34 35 36 37 38 39 40 41 42 43 44 45 46 47 48 49 50
000
ASUS43 KBIS 212010
RWRBIS

NWR BROADCAST TEXT
NATIONAL WEATHER SERVICE BISMARCK ND
200 PM CST SUN DEC 21 2014

NOTE: "FAIR" INDICATES FEW OR NO CLOUDS BELOW 12,000 FEET WITH NO
SIGNIFICANT WEATHER AND/OR OBSTRUCTIONS TO VISIBILITY.


CITY           SKY/WX    TMP DP  RH WIND       PRES   REMARKS
WILLISTON      CLOUDY    34  27  75 CALM      29.34F
MINOT          SUNNY     36  31  82 E9        29.41F
MINOT AFB      MOSUNNY   32  32 100 SE8       29.40F
BISMARCK       SUNNY     38  28  67 SE8       29.45F
DICKINSON      CLOUDY    41  28  60 SW9       29.36F
GARRISON         N/A     36  30  79 SE3       29.41F
HETTINGER ARPT CLOUDY    40  28  62 SW5       29.40F
JAMESTOWN      CLOUDY    33  30  88 SE13      29.52F FOG
BEACH          FAIR      39  28  65 SW9       29.35F
CARRINGTON     CLOUDY    30  30 100 MISG      29.52F FOG
CROSBY         FAIR      36  32  87 SE6       29.35F
HARVEY         FAIR      32  32 100 SE8       29.48F
HAZEN          CLOUDY    41  30  65 S10       29.42S
LINTON         FAIR      37  32  81 S10       29.45F
MANDAN         FAIR      37  28  70 S10       29.44F
OAKES            N/A     37  34  87 SE13      29.54F
RUGBY          MIX PCPN  30  30 100 SE12      29.47F
STANLEY        CLOUDY    34  34 100 S8        29.36F
TIOGA          CLOUDY    32  32 100 SE9       29.38F
WATFORD CITY   FAIR      34  28  80 E7        29.32F
$$

CITY           SKY/WX    TMP DP  RH WIND       PRES   REMARKS
GRAND FORKS    CLOUDY    31  30  96 S12       29.61F FOG
GRAND FORKS AF CLOUDY    32  32 100 S15       29.59F
DEVILS LAKE    CLOUDY    28  23  80 SE12      29.51S WCI  18
FARGO          CLOUDY    34  30  85 SE12G23   29.61F
CANDO          CLOUDY    27  27 100 SE12      29.52F FOG     WCI  16
CAVALIER       CLOUDY    30  30 100 S14       29.58F FOG     WCI  20
GWINNER        PTCLDY    37  34  87 SE12      29.57F
LANGDON        FOG       27  25  93 MISG      29.52F VSB<1/4
ROLLA          FAIR      27  27 100 S8        29.49S WCI  18
WALHALLA         N/A     28  28 100 S13       29.58F WCI  18
$$

CITY           SKY/WX    TMP DP  RH WIND       PRES   REMARKS
ABERDEEN       CLOUDY    34  30  85 SE14      29.53F
MOBRIDGE       SUNNY     42  29  59 S12       29.42F
BUFFALO          N/A     40  28  62 CALM      29.33F
RAPID CITY     CLOUDY    46  30  53 CALM      29.38F
GLASGOW        MIX PCPN  32  28  85 SE3       29.30F
SIDNEY         PTSUNNY   37  28  70 SE3       29.36F
WOLF POINT     CLOUDY    32  27  81 CALM      29.32F
GLENDIVE       CLOUDY    34  30  86 S7        29.34F
MILES CITY     CLOUDY    38  31  76 S7        29.33F
BAKER          LGT RAIN  38  36  92 S6        29.36F
$$

CITY           SKY/WX    TMP DP  RH WIND       PRES   REMARKS
BILLINGS       PTSUNNY   53  24  32 W23G40    29.40F
GREAT FALLS    CLOUDY    45  26  47 W30G38    29.42R
REGINA         MOSUNNY   23  23 100 E15       29.34F WCI  10
ESTEVAN        MOSUNNY   28  28 100 E10       29.36F WCI  19
$$



USA.gov is the U.S. government's official web portal to all federal, state and local government web resources and services.